Regional Weather Roundup
Issued by NWS

Home | Current Version | Previous Version | Text Only | Print | Product List | Glossary Off
Versions: 1 2 3 4 5 6 7 8 9 10 11 12 13 14 15 16 17 18 19 20 21 22 23 24 25 26 27 28 29 30 31 32 33 34 35 36 37 38 39 40 41 42 43 44 45 46 47 48 49 50

171
ASUS43 KDTX 100401
RWRMI
MICHIGAN HOURLY REGIONAL WEATHER ROUNDUP
NATIONAL WEATHER SERVICE DETROIT/PONTIAC MI
1100 PM EST TUE FEB 09 2016

NOTE: "FAIR" INDICATES FEW OR NO CLOUDS BELOW 12,000 FEET WITH NO
SIGNIFICANT WEATHER AND/OR OBSTRUCTION TO VISIBILITY.

MIZ047>049-052>055-059>063-066>070-074>076-081>083-100500-
SOUTHEAST LOWER MICHIGAN

CITY           SKY/WX    TMP DP  RH WIND       PRES   REMARKS
ADRIAN         CLOUDY    24  17  74 NW13      29.75S WCI  12
ALMA           FLURRIES  24  18  75 NW10      29.74R WCI  14
ANN ARBOR      CLOUDY    24  18  77 NW14G22   29.72R WCI  12
BAD AXE        FLURRIES  23  20  88 W9G17     29.65S WCI  13
CARO           CLOUDY    23  21  93 W13       29.67S WCI  11
DETROIT CITY   LGT SNOW  25  19  78 W9        29.70S WCI  15
DETROIT        LGT SNOW  27  19  74 W8        29.72S WCI  18
FLINT          CLOUDY    25  17  72 W13       29.70F WCI  14
GROSSE ILE     FLURRIES  27  21  80 W10       29.71R WCI  17
HILLSDALE      FLURRIES  22  17  79 NW14      29.74S WCI   9
HOWELL         FLURRIES  24  19  78 W12       29.71R WCI  13

CITY           SKY/WX    TMP DP  RH WIND       PRES   REMARKS
JACKSON        CLOUDY    22  15  75 W14       29.73S WCI   9
LAMBERTVILLE   CLOUDY    25  19  77 W12       29.75S WCI  15
LANSING        CLOUDY    23  17  78 W12       29.74S WCI  12
LAPEER         CLOUDY    23  20  88 W12       29.67F WCI  12
MASON          FLURRIES  23  18  80 W14G20    29.73S WCI  11
MONROE         FLURRIES  26  20  77 W10       29.73S WCI  16
MT. CLEMENS    LGT SNOW  25  21  85 W15       29.66S FOG     WCI  13
PONTIAC        LGT SNOW  22  19  89 W15       29.68R FOG     WCI   9
PORT HOPE        N/A     24  21  88 NW22G28   29.61S WCI   9
PORT HURON     LGT SNOW  25  21  86 W8        29.66R WCI  16
TRI CITIES     CLOUDY    25  16  68 NW12      29.71S WCI  14
MIDLAND        FLURRIES  23  16  73 W8        29.70S WCI  14
TROY           FLURRIES  26  21  82 W12G18    29.70S WCI  16
SAGINAW HB     FLURRIES  25  21  86 W13       29.70S WCI  13
$$
MIZ043>046-050>051-056>058-064>065-071>073-077>080-100500-
SOUTHWEST LOWER MICHIGAN

CITY           SKY/WX    TMP DP  RH WIND       PRES   REMARKS
BATTLE CREEK   FLURRIES  22  16  78 W10       29.78R WCI  11
BENTON HARBOR  SNOW      23  19  85 NW14G22   29.85S VSB 1/2 WCI  11
BIG RAPIDS     FLURRIES  20  15  79 NW8G18    29.74S WCI  11
COLDWATER      LGT SNOW  23  20  88 W10       29.77F WCI  12
FREMONT        CLOUDY    19  14  81 NW12      29.79S WCI   7
HOLLAND        LGT SNOW  21  17  84 VRB7      29.82S FOG     WCI  12
GRAND RAPIDS   FLURRIES  22  15  75 NW18G24   29.78R WCI   7
IONIA          FLURRIES  23  17  78 W14       29.75R WCI  10
KALAMAZOO      LGT SNOW  23  17  78 W7        29.79S WCI  15
LUDINGTON      LGT SNOW  19  15  86 NW14G21   29.83S WCI   5
MARSHALL       CLOUDY    23  15  71 W13       29.76S WCI  11
MOUNT PLEASANT FLURRIES  24  15  68 NW9       29.72S WCI  14
MUSKEGON       CLOUDY    21  13  71 N17G23    29.83R WCI   7
SOUTH HAVEN    LGT SNOW  24  18  78 NW10G17   29.83R WCI  13
$$
MIZ016>042-100500-
NORTHERN LOWER MICHIGAN

CITY           SKY/WX    TMP DP  RH WIND       PRES   REMARKS
ALPENA         LGT SNOW  19  15  84 NW8       29.66R FOG     WCI   9
BEAVER ISLAND  LGT SNOW  16  10  78 N13G21    29.78R WCI   2
BELLAIRE       LGT SNOW  19  16  87 N5        29.75S WCI  13
CADILLAC       LGT SNOW  19  14  80 NW12      29.69S WCI   7
CHARLEVOIX     CLOUDY    19  13  78 N20G26    29.78S WCI   3
FRANKFORT      LGT SNOW  20  17  88 NW18G26   29.80S VSB 3/4 WCI   4
GAYLORD        LGT SNOW  15  10  80 NW10G17   29.66S WCI   2
GRAYLING       LGT SNOW  19  13  80 NW17G24   29.68S WCI   3
HARBOR SPRINGS LGT SNOW  15   9  76 W3        29.73S
HOUGHTON LAKE  LGT SNOW  19  12  74 NW12      29.68R WCI   7
MANISTEE       CLOUDY    19  12  73 NW21G31   29.80F WCI   3
OSCODA         FLURRIES  19  15  82 NW12      29.65S WCI   7
PELLSTON       LGT SNOW  14   9  80 NW15      29.74R WCI  -1
ROGERS CITY    LGT SNOW  21  17  84 N13       29.68R WCI   8
TRAVERSE CITY  LGT SNOW  21  14  74 N15G25    29.75F WCI   8
$$
MIZ007>008-015-100500-
EASTERN UPPER MICHIGAN

CITY           SKY/WX    TMP DP  RH WIND       PRES   REMARKS
KINROSS        CLOUDY    10   7  85 N13       29.72R WCI  -5
MACKINAC ISLAN FLURRIES  14   9  80 N18G26    29.71S WCI  -3
NEWBERRY       LGT SNOW  11   7  85 N15       29.76S WCI  -6
S. S. MARIE    FLURRIES   9   0  67 N9        29.74R WCI  -4
$$
MIZ004>006-011>014-085-100500-
CENTRAL UPPER MICHIGAN

CITY           SKY/WX    TMP DP  RH WIND       PRES   REMARKS
MANISTIQUE     CLOUDY    15   9  77 N12G20    29.79S WCI   1
ESCANABA       CLOUDY    14   7  73 NW16G22   29.85R WCI  -2
MENOMINEE      CLOUDY    12   1  62 NW16G22   29.90R WCI  -4
SAWYER-GWINN   LGT SNOW   9   5  83 N22G31    29.82S WCI -11
$$
MIZ001>003-009>011-084-100500-
WESTERN UPPER MICHIGAN

CITY           SKY/WX    TMP DP  RH WIND       PRES   REMARKS
IRON MOUNTAIN  PTCLDY     8   0  69 NW13G23   29.88R WCI  -8
HOUGHTON       CLOUDY     7   0  73 N15G22    29.95S HAZE    WCI -10
COPPER HARBOR    N/A     13   9  84 NE24G35   29.96S WCI  -7
IRONWOOD       CLOUDY     9   1  72 N12       29.97S WCI  -6
$$

ABBREVIATIONS USED IN REMARKS
   TC - TEMPERATURE IN CELSIUS
  WCI - WIND CHILL INDEX
   HX - HEAT INDEX
  VSB - VISIBILITY





USA.gov is the U.S. government's official web portal to all federal, state and local government web resources and services.